Hourly Weather Roundup
Issued by NWS Central Illinois

Home | Current Version | Previous Version | Text Only | Print | Product List | Glossary On
Versions: 1 2 3 4 5 6 7 8 9 10 11 12 13 14 15 16 17 18 19 20 21 22 23 24 25 26 27 28 29 30 31 32 33 34 35 36 37 38 39 40 41 42 43 44 45 46 47 48 49 50
000
NZUS43 KILX 171410
HWRILX

AREA WEATHER ROUNDUP
NATIONAL WEATHER SERVICE, LINCOLN IL
900 AM CDT THU APR 17 2014


CITY           SKY/WX    TMP DP  RH WIND       PRES   REMARKS
BLOOMINGTON    SUNNY     48  31  52 SW17G23   30.20R
CHAMPAIGN      SUNNY     52  34  50 S15       30.22R
DANVILLE       SUNNY     50  32  49 S12       30.20S
DECATUR        MOSUNNY   52  33  48 SW18      30.22R
FLORA          NOT AVBL
GALESBURG      CLOUDY    42  37  81 W13       30.19R WCI  35
JACKSONVILLE   SUNNY     51  32  48 SW12      30.21R
LACON          MOSUNNY   48  36  64 W9        30.17R
LAWRENCEVILLE  SUNNY     52  35  52 S14       30.30R
LITCHFIELD     MOSUNNY   49  36  62 S15       30.22S
$$


CITY           SKY/WX    TMP DP  RH WIND       PRES   REMARKS
LINCOLN        MOSUNNY   54  33  45 SW8       30.20F
MACOMB         CLOUDY    44  37  77 NW10      30.22R
MATTOON        MOSUNNY   50  34  54 S10       30.24R
MT CARMEL AP   SUNNY     54  36  50 SW13      30.29R
OLNEY-NOBLE AP SUNNY     50  34  53 S7        30.28S
PARIS          SUNNY     52  34  50 S12       30.26R
PEORIA         MOSUNNY   50  36  58 NW8       30.18R
PONTIAC        SUNNY     52  34  50 SW16G22   30.18R
RANTOUL        SUNNY     53  32  44 SW14G20   30.22R
ROBINSON       SUNNY     53  37  55 S14       30.29R
SPRINGFIELD    SUNNY     51  32  48 SW8       30.22R
TAYLORVILLE    MOSUNNY   48  34  57 S15G21    30.22R
$$

...REGIONAL REPORTS...


CITY           SKY/WX    TMP DP  RH WIND       PRES   REMARKS
CHICAGO O`HARE MOSUNNY   49  29  46 SW18      30.14S
KANKAKEE       SUNNY     50  33  53 S15       30.20R
MOLINE         CLOUDY    41  33  73 W13       30.17R WCI  34
MOUNT VERNON   SUNNY     52  32  46 SW8       30.28R
PITTSFIELD     MOSUNNY   49  36  60 NW7       30.22R
QUINCY         PTSUNNY   45  36  70 NW14      30.20R
ROCKFORD       CLOUDY    47  36  65 SW14G21   30.14R
$$


CITY           SKY/WX    TMP DP  RH WIND       PRES   REMARKS
BURLINGTON     CLOUDY    41  34  76 NW7       30.21R
CEDAR RAPIDS   CLOUDY    36  29  75 W21       30.18R WCI  25
DES MOINES     CLOUDY    36  27  69 N16       30.25R WCI  26
KIRKSVILLE     CLOUDY    39  32  76 NW9       30.24R WCI  33
OTTUMWA        CLOUDY    38  30  73 NW15      30.22R WCI  29
ST LOUIS       PTSUNNY   53  33  46 W7        30.22R
$$


CITY           SKY/WX    TMP DP  RH WIND       PRES   REMARKS
TERRE HAUTE    SUNNY     52  31  44 S13       30.27R
EVANSVILLE     SUNNY     54  35  48 S15G22    30.32R
INDIANAPOLIS   PTSUNNY   49  30  48 S10       30.28R
LAFAYETTE      SUNNY     50  28  42 SW12G18   30.23F
MADISON        CLOUDY    44  37  76 SW8       30.07R
MILWAUKEE      PTSUNNY   48  32  53 S9        30.11R
$$





USA.gov is the U.S. government's official web portal to all federal, state and local government web resources and services.